Year,Month,Day,Hour,Minute,Value (Times are PST for windgust in km/hr)
2008,02,06,00,00,1.60
2008,02,06,00,01,4.80
2008,02,06,00,02,1.60
2008,02,06,00,03,0.00
2008,02,06,00,04,3.20
2008,02,06,00,05,1.60
2008,02,06,00,06,1.60
2008,02,06,00,07,3.20
2008,02,06,00,08,4.80
2008,02,06,00,09,4.80
2008,02,06,00,10,1.60
2008,02,06,00,11,3.20
2008,02,06,00,12,3.20
2008,02,06,00,13,4.80
2008,02,06,00,14,1.60
2008,02,06,00,15,8.10
2008,02,06,00,16,4.80
2008,02,06,00,17,0.00
2008,02,06,00,18,0.00
2008,02,06,00,19,11.30
2008,02,06,00,20,9.60
2008,02,06,00,21,4.80
2008,02,06,00,22,14.50
2008,02,06,00,23,6.40
2008,02,06,00,24,11.30
2008,02,06,00,25,8.10
2008,02,06,00,26,6.40
2008,02,06,00,27,14.50
2008,02,06,00,28,6.40
2008,02,06,00,29,4.80
2008,02,06,00,30,16.10
2008,02,06,00,31,14.50
2008,02,06,00,32,6.40
2008,02,06,00,33,3.20
2008,02,06,00,34,4.80
2008,02,06,00,35,17.70
2008,02,06,00,36,4.80
2008,02,06,00,37,4.80
2008,02,06,00,38,1.60
2008,02,06,00,39,4.80
2008,02,06,00,40,16.10
2008,02,06,00,41,17.70
2008,02,06,00,42,6.40
2008,02,06,00,43,9.60
2008,02,06,00,44,4.80
2008,02,06,00,45,6.40
2008,02,06,00,46,9.60
2008,02,06,00,47,6.40
2008,02,06,00,48,4.80
2008,02,06,00,49,3.20
2008,02,06,00,50,3.20
2008,02,06,00,51,8.10
2008,02,06,00,52,14.50
2008,02,06,00,53,3.20
2008,02,06,00,54,4.80
2008,02,06,00,55,4.80
2008,02,06,00,56,9.60
2008,02,06,00,57,4.80
2008,02,06,00,58,1.60
2008,02,06,00,59,1.60
2008,02,06,01,00,3.20
2008,02,06,01,01,1.60
2008,02,06,01,02,3.20
2008,02,06,01,03,8.10
2008,02,06,01,04,8.10
2008,02,06,01,05,4.80
2008,02,06,01,06,1.60
2008,02,06,01,07,4.80
2008,02,06,01,08,8.10
2008,02,06,01,09,14.50
2008,02,06,01,10,11.30
2008,02,06,01,11,4.80
2008,02,06,01,12,4.80
2008,02,06,01,13,4.80
2008,02,06,01,14,4.80
2008,02,06,01,15,3.20
2008,02,06,01,16,14.50
2008,02,06,01,17,25.70
2008,02,06,01,18,22.50
2008,02,06,01,19,4.80
2008,02,06,01,20,9.60
2008,02,06,01,21,16.10
2008,02,06,01,22,9.60
2008,02,06,01,23,14.50
2008,02,06,01,24,19.30
2008,02,06,01,25,19.30
2008,02,06,01,26,11.30
2008,02,06,01,27,4.80
2008,02,06,01,28,3.20
2008,02,06,01,29,3.20
2008,02,06,01,30,4.80
2008,02,06,01,31,6.40
2008,02,06,01,32,6.40
2008,02,06,01,33,6.40
2008,02,06,01,34,8.10
2008,02,06,01,35,4.80
2008,02,06,01,36,9.60
2008,02,06,01,37,4.80
2008,02,06,01,38,3.20
2008,02,06,01,39,4.80
2008,02,06,01,40,1.60
2008,02,06,01,41,0.00
2008,02,06,01,42,0.00
2008,02,06,01,43,1.60
2008,02,06,01,44,1.60
2008,02,06,01,45,1.60
2008,02,06,01,46,0.00
2008,02,06,01,47,0.00
2008,02,06,01,48,4.80
2008,02,06,01,49,1.60
2008,02,06,01,50,3.20
2008,02,06,01,51,0.00
2008,02,06,01,52,0.00
2008,02,06,01,53,0.00
2008,02,06,01,54,4.80
2008,02,06,01,55,3.20
2008,02,06,01,56,0.00
2008,02,06,01,57,0.00
2008,02,06,01,58,0.00
2008,02,06,01,59,0.00
2008,02,06,02,00,4.80
2008,02,06,02,01,1.60
2008,02,06,02,02,0.00
2008,02,06,02,03,0.00
2008,02,06,02,04,0.00
2008,02,06,02,05,3.20
2008,02,06,02,06,0.00
2008,02,06,02,07,1.60
2008,02,06,02,08,4.80
2008,02,06,02,09,1.60
2008,02,06,02,10,1.60
2008,02,06,02,11,3.20
2008,02,06,02,12,0.00
2008,02,06,02,13,0.00
2008,02,06,02,14,1.60
2008,02,06,02,15,1.60
2008,02,06,02,16,3.20
2008,02,06,02,17,3.20
2008,02,06,02,18,0.00
2008,02,06,02,19,0.00
2008,02,06,02,20,0.00
2008,02,06,02,21,1.60
2008,02,06,02,22,1.60
2008,02,06,02,23,1.60
2008,02,06,02,24,3.20
2008,02,06,02,25,1.60
2008,02,06,02,26,3.20
2008,02,06,02,27,4.80
2008,02,06,02,28,4.80
2008,02,06,02,29,3.20
2008,02,06,02,30,4.80
2008,02,06,02,31,1.60
2008,02,06,02,32,8.10
2008,02,06,02,33,11.30
2008,02,06,02,34,6.40
2008,02,06,02,35,8.10
2008,02,06,02,36,3.20
2008,02,06,02,37,8.10
2008,02,06,02,38,19.30
2008,02,06,02,39,9.60
2008,02,06,02,40,9.60
2008,02,06,02,41,4.80
2008,02,06,02,42,8.10
2008,02,06,02,43,9.60
2008,02,06,02,44,6.40
2008,02,06,02,45,4.80
2008,02,06,02,46,1.60
2008,02,06,02,47,4.80
2008,02,06,02,48,8.10
2008,02,06,02,49,4.80
2008,02,06,02,50,3.20
2008,02,06,02,51,3.20
2008,02,06,02,52,3.20
2008,02,06,02,53,6.40
2008,02,06,02,54,6.40
2008,02,06,02,55,6.40
2008,02,06,02,56,22.50
2008,02,06,02,57,11.30
2008,02,06,02,58,4.80
2008,02,06,02,59,6.40
2008,02,06,03,00,3.20
2008,02,06,03,01,4.80
2008,02,06,03,02,25.70
2008,02,06,03,03,16.10
2008,02,06,03,04,6.40
2008,02,06,03,05,6.40
2008,02,06,03,06,4.80
2008,02,06,03,07,9.60
2008,02,06,03,08,4.80
2008,02,06,03,09,11.30
2008,02,06,03,10,14.50
2008,02,06,03,11,8.10
2008,02,06,03,12,8.10
2008,02,06,03,13,4.80
2008,02,06,03,14,6.40
2008,02,06,03,15,4.80
2008,02,06,03,16,8.10
2008,02,06,03,17,4.80
2008,02,06,03,18,6.40
2008,02,06,03,19,19.30
2008,02,06,03,20,16.10
2008,02,06,03,21,16.10
2008,02,06,03,22,11.30
2008,02,06,03,23,6.40
2008,02,06,03,24,6.40
2008,02,06,03,25,6.40
2008,02,06,03,26,6.40
2008,02,06,03,27,3.20
2008,02,06,03,28,4.80
2008,02,06,03,29,3.20
2008,02,06,03,30,3.20
2008,02,06,03,31,1.60
2008,02,06,03,32,3.20
2008,02,06,03,33,0.00
2008,02,06,03,34,1.60
2008,02,06,03,35,4.80
2008,02,06,03,36,6.40
2008,02,06,03,37,8.10
2008,02,06,03,38,0.00
2008,02,06,03,39,4.80
2008,02,06,03,40,3.20
2008,02,06,03,41,4.80
2008,02,06,03,42,6.40
2008,02,06,03,43,0.00
2008,02,06,03,44,1.60
2008,02,06,03,45,0.00
2008,02,06,03,46,3.20
2008,02,06,03,47,1.60
2008,02,06,03,48,0.00
2008,02,06,03,49,0.00
2008,02,06,03,50,0.00
2008,02,06,03,51,4.80
2008,02,06,03,52,1.60
2008,02,06,03,53,1.60
2008,02,06,03,54,1.60
2008,02,06,03,55,0.00
2008,02,06,03,56,0.00
2008,02,06,03,57,0.00
2008,02,06,03,58,3.20
2008,02,06,03,59,8.10
2008,02,06,04,00,3.20
2008,02,06,04,01,1.60
2008,02,06,04,02,1.60
2008,02,06,04,03,0.00
2008,02,06,04,04,1.60
2008,02,06,04,05,3.20
2008,02,06,04,06,4.80
2008,02,06,04,07,14.50
2008,02,06,04,08,16.10
2008,02,06,04,09,9.60
2008,02,06,04,10,6.40
2008,02,06,04,11,3.20
2008,02,06,04,12,3.20
2008,02,06,04,13,4.80
2008,02,06,04,14,8.10
2008,02,06,04,15,14.50
2008,02,06,04,16,9.60
2008,02,06,04,17,4.80
2008,02,06,04,18,16.10
2008,02,06,04,19,11.30
2008,02,06,04,20,16.10
2008,02,06,04,21,3.20
2008,02,06,04,22,14.50
2008,02,06,04,23,9.60
2008,02,06,04,24,14.50
2008,02,06,04,25,12.90
2008,02,06,04,26,4.80
2008,02,06,04,27,6.40
2008,02,06,04,28,3.20
2008,02,06,04,29,8.10
2008,02,06,04,30,16.10
2008,02,06,04,31,6.40
2008,02,06,04,32,16.10
2008,02,06,04,33,6.40
2008,02,06,04,34,16.10
2008,02,06,04,35,12.90
2008,02,06,04,36,16.10
2008,02,06,04,37,9.60
2008,02,06,04,38,11.30
2008,02,06,04,39,11.30
2008,02,06,04,40,16.10
2008,02,06,04,41,9.60
2008,02,06,04,42,9.60
2008,02,06,04,43,11.30
2008,02,06,04,44,6.40
2008,02,06,04,45,11.30
2008,02,06,04,46,11.30
2008,02,06,04,47,11.30
2008,02,06,04,48,8.10
2008,02,06,04,49,17.70
2008,02,06,04,50,9.60
2008,02,06,04,51,14.50
2008,02,06,04,52,14.50
2008,02,06,04,53,17.70
2008,02,06,04,54,14.50
2008,02,06,04,55,8.10
2008,02,06,04,56,6.40
2008,02,06,04,57,20.90
2008,02,06,04,58,22.50
2008,02,06,04,59,19.30
2008,02,06,05,00,12.90
2008,02,06,05,01,11.30
2008,02,06,05,02,6.40
2008,02,06,05,03,17.70
2008,02,06,05,04,29.00
2008,02,06,05,05,6.40
2008,02,06,05,06,22.50
2008,02,06,05,07,19.30
2008,02,06,05,08,27.40
2008,02,06,05,09,22.50
2008,02,06,05,10,20.90
2008,02,06,05,11,17.70
2008,02,06,05,12,14.50
2008,02,06,05,13,19.30
2008,02,06,05,14,32.20
2008,02,06,05,15,14.50
2008,02,06,05,16,9.60
2008,02,06,05,17,9.60
2008,02,06,05,18,27.40
2008,02,06,05,19,19.30
2008,02,06,05,20,24.20
2008,02,06,05,21,9.60
2008,02,06,05,22,8.10
2008,02,06,05,23,11.30
2008,02,06,05,24,25.70
2008,02,06,05,25,32.20
2008,02,06,05,26,17.70
2008,02,06,05,27,24.20
2008,02,06,05,28,33.80
2008,02,06,05,29,25.70
2008,02,06,05,30,24.20
2008,02,06,05,31,11.30
2008,02,06,05,32,16.10
2008,02,06,05,33,14.50
2008,02,06,05,34,11.30
2008,02,06,05,35,29.00
2008,02,06,05,36,20.90
2008,02,06,05,37,24.20
2008,02,06,05,38,25.70
2008,02,06,05,39,30.60
2008,02,06,05,40,20.90
2008,02,06,05,41,25.70
2008,02,06,05,42,25.70
2008,02,06,05,43,14.50
2008,02,06,05,44,11.30
2008,02,06,05,45,4.80
2008,02,06,05,46,12.90
2008,02,06,05,47,14.50
2008,02,06,05,48,14.50
2008,02,06,05,49,14.50
2008,02,06,05,50,16.10
2008,02,06,05,51,16.10
2008,02,06,05,52,11.30
2008,02,06,05,53,11.30
2008,02,06,05,54,17.70
2008,02,06,05,55,14.50
2008,02,06,05,56,17.70
2008,02,06,05,57,14.50
2008,02,06,05,58,20.90
2008,02,06,05,59,14.50
2008,02,06,06,00,9.60
2008,02,06,06,01,20.90
2008,02,06,06,02,16.10
2008,02,06,06,03,16.10
2008,02,06,06,04,20.90
2008,02,06,06,05,9.60
2008,02,06,06,06,17.70
2008,02,06,06,07,14.50
2008,02,06,06,08,8.10
2008,02,06,06,09,9.60
2008,02,06,06,10,19.30
2008,02,06,06,11,20.90
2008,02,06,06,12,17.70
2008,02,06,06,13,14.50
2008,02,06,06,14,16.10
2008,02,06,06,15,9.60
2008,02,06,06,16,9.60
2008,02,06,06,17,17.70
2008,02,06,06,18,17.70
2008,02,06,06,19,16.10
2008,02,06,06,20,20.90
2008,02,06,06,21,9.60
2008,02,06,06,22,14.50
2008,02,06,06,23,11.30
2008,02,06,06,24,22.50
2008,02,06,06,25,11.30
2008,02,06,06,26,11.30
2008,02,06,06,27,8.10
2008,02,06,06,28,9.60
2008,02,06,06,29,17.70
2008,02,06,06,30,17.70
2008,02,06,06,31,14.50
2008,02,06,06,32,20.90
2008,02,06,06,33,19.30
2008,02,06,06,34,17.70
2008,02,06,06,35,19.30
2008,02,06,06,36,16.10
2008,02,06,06,37,16.10
2008,02,06,06,38,19.30
2008,02,06,06,39,17.70
2008,02,06,06,40,20.90
2008,02,06,06,41,19.30
2008,02,06,06,42,17.70
2008,02,06,06,43,16.10
2008,02,06,06,44,22.50
2008,02,06,06,45,27.40
2008,02,06,06,46,22.50
2008,02,06,06,47,20.90
2008,02,06,06,48,14.50
2008,02,06,06,49,14.50
2008,02,06,06,50,14.50
2008,02,06,06,51,19.30
2008,02,06,06,52,16.10
2008,02,06,06,53,11.30
2008,02,06,06,54,22.50
2008,02,06,06,55,25.70
2008,02,06,06,56,11.30
2008,02,06,06,57,14.50
2008,02,06,06,58,17.70
2008,02,06,06,59,14.50
2008,02,06,07,00,4.80
2008,02,06,07,01,3.20
2008,02,06,07,02,3.20
2008,02,06,07,03,3.20
2008,02,06,07,04,8.10
2008,02,06,07,05,12.90
2008,02,06,07,06,14.50
2008,02,06,07,07,16.10
2008,02,06,07,08,8.10
2008,02,06,07,09,11.30
2008,02,06,07,10,20.90
2008,02,06,07,11,17.70
2008,02,06,07,12,14.50
2008,02,06,07,13,11.30
2008,02,06,07,14,11.30
2008,02,06,07,15,22.50
2008,02,06,07,16,19.30
2008,02,06,07,17,17.70
2008,02,06,07,18,17.70
2008,02,06,07,19,19.30
2008,02,06,07,20,9.60
2008,02,06,07,21,16.10
2008,02,06,07,22,12.90
2008,02,06,07,23,8.10
2008,02,06,07,24,11.30
2008,02,06,07,25,11.30
2008,02,06,07,26,14.50
2008,02,06,07,27,9.60
2008,02,06,07,28,11.30
2008,02,06,07,29,6.40
2008,02,06,07,30,16.10
2008,02,06,07,31,14.50
2008,02,06,07,32,9.60
2008,02,06,07,33,9.60
2008,02,06,07,34,8.10
2008,02,06,07,35,9.60
2008,02,06,07,36,11.30
2008,02,06,07,37,6.40
2008,02,06,07,38,11.30
2008,02,06,07,39,8.10
2008,02,06,07,40,8.10
2008,02,06,07,41,16.10
2008,02,06,07,42,17.70
2008,02,06,07,43,14.50
2008,02,06,07,44,11.30
2008,02,06,07,45,9.60
2008,02,06,07,46,11.30
2008,02,06,07,47,11.30
2008,02,06,07,48,12.90
2008,02,06,07,49,9.60
2008,02,06,07,50,6.40
2008,02,06,07,51,8.10
2008,02,06,07,52,16.10
2008,02,06,07,53,14.50
2008,02,06,07,54,14.50
2008,02,06,07,55,9.60
2008,02,06,07,56,14.50
2008,02,06,07,57,16.10
2008,02,06,07,58,9.60
2008,02,06,07,59,9.60
2008,02,06,08,00,9.60
2008,02,06,08,01,14.50
2008,02,06,08,02,9.60
2008,02,06,08,03,9.60
2008,02,06,08,04,16.10
2008,02,06,08,05,8.10
2008,02,06,08,06,16.10
2008,02,06,08,07,11.30
2008,02,06,08,08,17.70
2008,02,06,08,09,11.30
2008,02,06,08,10,14.50
2008,02,06,08,11,12.90
2008,02,06,08,12,8.10
2008,02,06,08,13,24.20
2008,02,06,08,14,8.10
2008,02,06,08,15,22.50
2008,02,06,08,16,19.30
2008,02,06,08,17,19.30
2008,02,06,08,18,17.70
2008,02,06,08,19,19.30
2008,02,06,08,20,24.20
2008,02,06,08,21,14.50
2008,02,06,08,22,14.50
2008,02,06,08,23,19.30
2008,02,06,08,24,9.60
2008,02,06,08,25,20.90
2008,02,06,08,26,11.30
2008,02,06,08,27,14.50
2008,02,06,08,28,19.30
2008,02,06,08,29,16.10
2008,02,06,08,30,14.50
2008,02,06,08,31,8.10
2008,02,06,08,32,14.50
2008,02,06,08,33,17.70
2008,02,06,08,34,14.50
2008,02,06,08,35,20.90
2008,02,06,08,36,16.10
2008,02,06,08,37,6.40
2008,02,06,08,38,14.50
2008,02,06,08,39,12.90
2008,02,06,08,40,14.50
2008,02,06,08,41,9.60
2008,02,06,08,42,6.40
2008,02,06,08,43,8.10
2008,02,06,08,44,6.40
2008,02,06,08,45,4.80
2008,02,06,08,46,14.50
2008,02,06,08,47,8.10
2008,02,06,08,48,8.10
2008,02,06,08,49,11.30
2008,02,06,08,50,12.90
2008,02,06,08,51,8.10
2008,02,06,08,52,8.10
2008,02,06,08,53,11.30
2008,02,06,08,54,14.50
2008,02,06,08,55,8.10
2008,02,06,08,56,6.40
2008,02,06,08,57,4.80
2008,02,06,08,58,16.10
2008,02,06,08,59,6.40
2008,02,06,09,00,11.30
2008,02,06,09,01,11.30
2008,02,06,09,02,19.30
2008,02,06,09,03,9.60
2008,02,06,09,04,9.60
2008,02,06,09,05,16.10
2008,02,06,09,06,16.10
2008,02,06,09,07,9.60
2008,02,06,09,08,11.30
2008,02,06,09,09,17.70
2008,02,06,09,10,11.30
2008,02,06,09,11,9.60
2008,02,06,09,12,8.10
2008,02,06,09,13,9.60
2008,02,06,09,14,14.50
2008,02,06,09,15,12.90
2008,02,06,09,16,8.10
2008,02,06,09,17,14.50
2008,02,06,09,18,14.50
2008,02,06,09,19,14.50
2008,02,06,09,20,14.50
2008,02,06,09,21,16.10
2008,02,06,09,22,11.30
2008,02,06,09,23,12.90
2008,02,06,09,24,4.80
2008,02,06,09,25,8.10
2008,02,06,09,26,11.30
2008,02,06,09,27,9.60
2008,02,06,09,28,12.90
2008,02,06,09,29,9.60
2008,02,06,09,30,11.30
2008,02,06,09,31,12.90
2008,02,06,09,32,9.60
2008,02,06,09,33,14.50
2008,02,06,09,34,8.10
2008,02,06,09,35,11.30
2008,02,06,09,36,9.60
2008,02,06,09,37,4.80
2008,02,06,09,38,6.40
2008,02,06,09,39,9.60
2008,02,06,09,40,9.60
2008,02,06,09,41,8.10
2008,02,06,09,42,14.50
2008,02,06,09,43,6.40
2008,02,06,09,44,14.50
2008,02,06,09,45,8.10
2008,02,06,09,46,9.60
2008,02,06,09,47,6.40
2008,02,06,09,48,8.10
2008,02,06,09,49,9.60
2008,02,06,09,50,8.10
2008,02,06,09,51,11.30
2008,02,06,09,52,11.30
2008,02,06,09,53,11.30
2008,02,06,09,54,12.90
2008,02,06,09,55,14.50
2008,02,06,09,56,9.60
2008,02,06,09,57,11.30
2008,02,06,09,58,11.30
2008,02,06,09,59,6.40
2008,02,06,10,00,12.90
2008,02,06,10,01,11.30
2008,02,06,10,02,14.50
2008,02,06,10,03,6.40
2008,02,06,10,04,4.80
2008,02,06,10,05,9.60
2008,02,06,10,06,17.70
2008,02,06,10,07,11.30
2008,02,06,10,08,11.30
2008,02,06,10,09,11.30
2008,02,06,10,10,11.30
2008,02,06,10,11,14.50
2008,02,06,10,12,8.10
2008,02,06,10,13,11.30
2008,02,06,10,14,16.10
2008,02,06,10,15,9.60
2008,02,06,10,16,9.60
2008,02,06,10,17,6.40
2008,02,06,10,18,11.30
2008,02,06,10,19,8.10
2008,02,06,10,20,11.30
2008,02,06,10,21,11.30
2008,02,06,10,22,16.10
2008,02,06,10,23,8.10
2008,02,06,10,24,4.80
2008,02,06,10,25,11.30
2008,02,06,10,26,4.80
2008,02,06,10,27,11.30
2008,02,06,10,28,9.60
2008,02,06,10,29,4.80
2008,02,06,10,30,9.60
2008,02,06,10,31,8.10
2008,02,06,10,32,8.10
2008,02,06,10,33,4.80
2008,02,06,10,34,4.80
2008,02,06,10,35,4.80
2008,02,06,10,36,8.10
2008,02,06,10,37,9.60
2008,02,06,10,38,1.60
2008,02,06,10,39,4.80
2008,02,06,10,40,8.10
2008,02,06,10,41,3.20
2008,02,06,10,42,3.20
2008,02,06,10,43,8.10
2008,02,06,10,44,1.60
2008,02,06,10,45,6.40
2008,02,06,10,46,4.80
2008,02,06,10,47,8.10
2008,02,06,10,48,4.80
2008,02,06,10,49,1.60
2008,02,06,10,50,3.20
2008,02,06,10,51,3.20
2008,02,06,10,52,3.20
2008,02,06,10,53,3.20
2008,02,06,10,54,3.20
2008,02,06,10,55,4.80
2008,02,06,10,56,1.60
2008,02,06,10,57,1.60
2008,02,06,10,58,0.00
2008,02,06,10,59,0.00
2008,02,06,11,00,0.00
2008,02,06,11,01,3.20
2008,02,06,11,02,3.20
2008,02,06,11,03,3.20
2008,02,06,11,04,8.10
2008,02,06,11,05,3.20
2008,02,06,11,06,3.20
2008,02,06,11,07,3.20
2008,02,06,11,08,4.80
2008,02,06,11,09,3.20
2008,02,06,11,10,1.60
2008,02,06,11,11,6.40
2008,02,06,11,12,4.80
2008,02,06,11,13,1.60
2008,02,06,11,14,0.00
2008,02,06,11,15,0.00
2008,02,06,11,16,0.00
2008,02,06,11,17,0.00
2008,02,06,11,18,0.00
2008,02,06,11,19,1.60
2008,02,06,11,20,0.00
2008,02,06,11,21,1.60
2008,02,06,11,22,1.60
2008,02,06,11,23,3.20
2008,02,06,11,24,4.80
2008,02,06,11,25,9.60
2008,02,06,11,26,4.80
2008,02,06,11,27,0.00
2008,02,06,11,28,0.00
2008,02,06,11,29,0.00
2008,02,06,11,30,0.00
2008,02,06,11,31,3.20
2008,02,06,11,32,6.40
2008,02,06,11,33,9.60
2008,02,06,11,34,1.60
2008,02,06,11,35,0.00
2008,02,06,11,36,0.00
2008,02,06,11,37,0.00
2008,02,06,11,38,0.00
2008,02,06,11,39,0.00
2008,02,06,11,40,1.60
2008,02,06,11,41,3.20
2008,02,06,11,42,8.10
2008,02,06,11,43,6.40
2008,02,06,11,44,9.60
2008,02,06,11,45,3.20
2008,02,06,11,46,8.10
2008,02,06,11,47,4.80
2008,02,06,11,48,6.40
2008,02,06,11,49,11.30
2008,02,06,11,50,11.30
2008,02,06,11,51,8.10
2008,02,06,11,52,3.20
2008,02,06,11,53,14.50
2008,02,06,11,54,9.60
2008,02,06,11,55,9.60
2008,02,06,11,56,8.10
2008,02,06,11,57,4.80
2008,02,06,11,58,6.40
2008,02,06,11,59,9.60
2008,02,06,12,00,8.10
2008,02,06,12,01,12.90
2008,02,06,12,02,11.30
2008,02,06,12,03,3.20
2008,02,06,12,04,6.40
2008,02,06,12,05,4.80
2008,02,06,12,06,1.60
2008,02,06,12,07,8.10
2008,02,06,12,08,6.40
2008,02,06,12,09,9.60
2008,02,06,12,10,8.10
2008,02,06,12,11,4.80
2008,02,06,12,12,8.10
2008,02,06,12,13,8.10
2008,02,06,12,14,6.40
2008,02,06,12,15,8.10
2008,02,06,12,16,1.60
2008,02,06,12,17,3.20
2008,02,06,12,18,1.60
2008,02,06,12,19,17.70
2008,02,06,12,20,16.10
2008,02,06,12,21,11.30
2008,02,06,12,22,16.10
2008,02,06,12,23,8.10
2008,02,06,12,24,9.60
2008,02,06,12,25,9.60
2008,02,06,12,26,6.40
2008,02,06,12,27,4.80
2008,02,06,12,28,6.40
2008,02,06,12,29,1.60
2008,02,06,12,30,0.00
2008,02,06,12,31,0.00
2008,02,06,12,32,1.60
2008,02,06,12,33,4.80
2008,02,06,12,34,3.20
2008,02,06,12,35,4.80
2008,02,06,12,36,4.80
2008,02,06,12,37,6.40
2008,02,06,12,38,6.40
2008,02,06,12,39,4.80
2008,02,06,12,40,4.80
2008,02,06,12,41,9.60
2008,02,06,12,42,9.60
2008,02,06,12,43,6.40
2008,02,06,12,44,4.80
2008,02,06,12,45,1.60
2008,02,06,12,46,6.40
2008,02,06,12,47,8.10
2008,02,06,12,48,3.20
2008,02,06,12,49,0.00
2008,02,06,12,50,3.20
2008,02,06,12,51,3.20
2008,02,06,12,52,3.20
2008,02,06,12,53,1.60
2008,02,06,12,54,0.00
2008,02,06,12,55,3.20
2008,02,06,12,56,3.20
2008,02,06,12,57,0.00
2008,02,06,12,58,3.20
2008,02,06,12,59,6.40
2008,02,06,13,00,1.60
2008,02,06,13,01,0.00
2008,02,06,13,02,1.60
2008,02,06,13,03,1.60
2008,02,06,13,04,1.60
2008,02,06,13,05,3.20
2008,02,06,13,06,8.10
2008,02,06,13,07,8.10
2008,02,06,13,08,6.40
2008,02,06,13,09,6.40
2008,02,06,13,10,4.80
2008,02,06,13,11,3.20
2008,02,06,13,12,0.00
2008,02,06,13,13,1.60
2008,02,06,13,14,1.60
2008,02,06,13,15,3.20
2008,02,06,13,16,0.00
2008,02,06,13,17,6.40
2008,02,06,13,18,1.60
2008,02,06,13,19,1.60
2008,02,06,13,20,3.20
2008,02,06,13,21,6.40
2008,02,06,13,22,0.00
2008,02,06,13,23,0.00
2008,02,06,13,24,1.60
2008,02,06,13,25,1.60
2008,02,06,13,26,0.00
2008,02,06,13,27,0.00
2008,02,06,13,28,0.00
2008,02,06,13,29,0.00
2008,02,06,13,30,0.00
2008,02,06,13,31,1.60
2008,02,06,13,32,1.60
2008,02,06,13,33,0.00
2008,02,06,13,34,1.60
2008,02,06,13,35,0.00
2008,02,06,13,36,3.20
2008,02,06,13,37,3.20
2008,02,06,13,38,0.00
2008,02,06,13,39,1.60
2008,02,06,13,40,3.20
2008,02,06,13,41,0.00
2008,02,06,13,42,1.60
2008,02,06,13,43,4.80
2008,02,06,13,44,3.20
2008,02,06,13,45,3.20
2008,02,06,13,46,3.20
2008,02,06,13,47,6.40
2008,02,06,13,48,4.80
2008,02,06,13,49,1.60
2008,02,06,13,50,1.60
2008,02,06,13,51,4.80
2008,02,06,13,52,4.80
2008,02,06,13,53,4.80
2008,02,06,13,54,0.00
2008,02,06,13,55,8.10
2008,02,06,13,56,1.60
2008,02,06,13,57,3.20
2008,02,06,13,58,6.40
2008,02,06,13,59,3.20
2008,02,06,14,00,4.80
2008,02,06,14,01,4.80
2008,02,06,14,02,3.20
2008,02,06,14,03,1.60
2008,02,06,14,04,0.00
2008,02,06,14,05,3.20
2008,02,06,14,06,3.20
2008,02,06,14,07,3.20
2008,02,06,14,08,3.20
2008,02,06,14,09,3.20
2008,02,06,14,10,4.80
2008,02,06,14,11,1.60
2008,02,06,14,12,0.00
2008,02,06,14,13,1.60
2008,02,06,14,14,4.80
2008,02,06,14,15,3.20
2008,02,06,14,16,1.60
2008,02,06,14,17,1.60
2008,02,06,14,18,3.20
2008,02,06,14,19,3.20
2008,02,06,14,20,1.60
2008,02,06,14,21,3.20
2008,02,06,14,22,3.20
2008,02,06,14,23,0.00
2008,02,06,14,24,0.00
2008,02,06,14,25,1.60
2008,02,06,14,26,1.60
2008,02,06,14,27,0.00
2008,02,06,14,28,3.20
2008,02,06,14,29,1.60
2008,02,06,14,30,0.00
2008,02,06,14,31,3.20
2008,02,06,14,32,1.60
2008,02,06,14,33,3.20
2008,02,06,14,34,3.20
2008,02,06,14,35,1.60
2008,02,06,14,36,0.00
2008,02,06,14,37,0.00
2008,02,06,14,38,0.00
2008,02,06,14,39,0.00
2008,02,06,14,40,0.00
2008,02,06,14,41,0.00
2008,02,06,14,42,0.00
2008,02,06,14,43,0.00
2008,02,06,14,44,0.00
2008,02,06,14,45,0.00
2008,02,06,14,46,0.00
2008,02,06,14,47,0.00
2008,02,06,14,48,0.00
2008,02,06,14,49,0.00
2008,02,06,14,50,0.00
2008,02,06,14,51,1.60
2008,02,06,14,52,0.00
2008,02,06,14,53,0.00
2008,02,06,14,54,0.00
2008,02,06,14,55,0.00
2008,02,06,14,56,0.00
2008,02,06,14,57,1.60
2008,02,06,14,58,0.00
2008,02,06,14,59,0.00
2008,02,06,15,00,0.00
2008,02,06,15,01,0.00
2008,02,06,15,02,0.00
2008,02,06,15,03,0.00
2008,02,06,15,04,0.00
2008,02,06,15,05,0.00
2008,02,06,15,06,0.00
2008,02,06,15,07,0.00
2008,02,06,15,08,0.00
2008,02,06,15,09,0.00
2008,02,06,15,10,0.00
2008,02,06,15,11,0.00
2008,02,06,15,12,0.00
2008,02,06,15,13,1.60
2008,02,06,15,14,3.20
2008,02,06,15,15,1.60
2008,02,06,15,16,0.00
2008,02,06,15,17,0.00
2008,02,06,15,18,0.00
2008,02,06,15,19,0.00
2008,02,06,15,20,0.00
2008,02,06,15,21,0.00
2008,02,06,15,22,0.00
2008,02,06,15,23,0.00
2008,02,06,15,24,0.00
2008,02,06,15,25,0.00
2008,02,06,15,26,1.60
2008,02,06,15,27,1.60
2008,02,06,15,28,1.60
2008,02,06,15,29,4.80
2008,02,06,15,30,1.60
2008,02,06,15,31,1.60
2008,02,06,15,32,1.60
2008,02,06,15,33,3.20
2008,02,06,15,34,3.20
2008,02,06,15,35,3.20
2008,02,06,15,36,3.20
2008,02,06,15,37,3.20
2008,02,06,15,38,1.60
2008,02,06,15,39,0.00
2008,02,06,15,40,0.00
2008,02,06,15,41,0.00
2008,02,06,15,42,0.00
2008,02,06,15,43,0.00
2008,02,06,15,44,0.00
2008,02,06,15,45,0.00
2008,02,06,15,46,0.00
2008,02,06,15,47,0.00
2008,02,06,15,48,0.00
2008,02,06,15,49,0.00
2008,02,06,15,50,0.00
2008,02,06,15,51,0.00
2008,02,06,15,52,0.00
2008,02,06,15,53,0.00
2008,02,06,15,54,0.00
2008,02,06,15,55,0.00
2008,02,06,15,56,0.00
2008,02,06,15,57,0.00
2008,02,06,15,58,0.00
2008,02,06,15,59,0.00
2008,02,06,16,00,0.00
2008,02,06,16,01,0.00
2008,02,06,16,02,0.00
2008,02,06,16,03,0.00
2008,02,06,16,04,0.00
2008,02,06,16,05,0.00
2008,02,06,16,06,0.00
2008,02,06,16,07,0.00
2008,02,06,16,08,0.00
2008,02,06,16,09,0.00
2008,02,06,16,10,0.00
2008,02,06,16,11,0.00
2008,02,06,16,12,0.00
2008,02,06,16,13,0.00
2008,02,06,16,14,0.00
2008,02,06,16,15,0.00
2008,02,06,16,16,0.00
2008,02,06,16,17,0.00
2008,02,06,16,18,0.00
2008,02,06,16,19,0.00
2008,02,06,16,20,0.00
2008,02,06,16,21,0.00
2008,02,06,16,22,0.00
2008,02,06,16,23,0.00
2008,02,06,16,24,0.00
2008,02,06,16,25,0.00
2008,02,06,16,26,0.00
2008,02,06,16,27,0.00
2008,02,06,16,28,0.00
2008,02,06,16,29,0.00
2008,02,06,16,30,0.00
2008,02,06,16,31,0.00
2008,02,06,16,32,0.00
2008,02,06,16,33,0.00
2008,02,06,16,34,0.00
2008,02,06,16,35,0.00
2008,02,06,16,36,0.00
2008,02,06,16,37,0.00
2008,02,06,16,38,0.00
2008,02,06,16,39,0.00
2008,02,06,16,40,0.00
2008,02,06,16,41,0.00
2008,02,06,16,42,0.00
2008,02,06,16,43,0.00
2008,02,06,16,44,0.00
2008,02,06,16,45,0.00
2008,02,06,16,46,0.00
2008,02,06,16,47,0.00
2008,02,06,16,48,0.00
2008,02,06,16,49,0.00
2008,02,06,16,50,0.00
2008,02,06,16,51,0.00
2008,02,06,16,52,0.00
2008,02,06,16,53,0.00
2008,02,06,16,54,0.00
2008,02,06,16,55,0.00
2008,02,06,16,56,0.00
2008,02,06,16,57,0.00
2008,02,06,16,58,0.00
2008,02,06,16,59,0.00
2008,02,06,17,00,0.00
2008,02,06,17,01,0.00
2008,02,06,17,02,0.00
2008,02,06,17,03,0.00
2008,02,06,17,04,0.00
2008,02,06,17,05,0.00
2008,02,06,17,06,0.00
2008,02,06,17,07,0.00
2008,02,06,17,08,0.00
2008,02,06,17,09,0.00
2008,02,06,17,10,0.00
2008,02,06,17,11,0.00
2008,02,06,17,12,0.00
2008,02,06,17,13,0.00
2008,02,06,17,14,0.00
2008,02,06,17,15,3.20
2008,02,06,17,16,0.00
2008,02,06,17,17,0.00
2008,02,06,17,18,0.00
2008,02,06,17,19,0.00
2008,02,06,17,20,0.00
2008,02,06,17,21,0.00
2008,02,06,17,22,1.60
2008,02,06,17,23,1.60
2008,02,06,17,24,0.00
2008,02,06,17,25,0.00
2008,02,06,17,26,0.00
2008,02,06,17,27,0.00
2008,02,06,17,28,0.00
2008,02,06,17,29,0.00
2008,02,06,17,30,0.00
2008,02,06,17,31,0.00
2008,02,06,17,32,0.00
2008,02,06,17,33,0.00
2008,02,06,17,34,4.80
2008,02,06,17,35,0.00
2008,02,06,17,36,0.00
2008,02,06,17,37,1.60
2008,02,06,17,38,0.00
2008,02,06,17,39,1.60
2008,02,06,17,40,0.00
2008,02,06,17,41,0.00
2008,02,06,17,42,1.60
2008,02,06,17,43,3.20
2008,02,06,17,44,4.80
2008,02,06,17,45,3.20
2008,02,06,17,46,1.60
2008,02,06,17,47,0.00
2008,02,06,17,48,0.00
2008,02,06,17,49,0.00
2008,02,06,17,50,0.00
2008,02,06,17,51,0.00
2008,02,06,17,52,0.00
2008,02,06,17,53,3.20